FW6883 Weather Reports


Display with metric or nautical units.
time (UTC)temp
F
wind
direction
speed
MPH
gust
MPH
rain 1hr
in
rain 24hr
in
rain mn
in
humidity
%
barometer
mb
20260504173056 39 142 3.0 9.0 0.00 0.00 0.00 83 1007.3
20260504171542 38 94 4.0 11.0 0.00 0.00 0.00 80 1007.2
20260504140122 33 105 2.0 6.0 0.00 0.00 0.00 92 1005.8
20260504081549 33 108 1.0 6.0 0.00 0.00 0.00 96 1004.4
20260504050008 36 107 4.0 8.0 0.00 0.00 0.00 94 1003.1
20260504044504 36 104 1.0 9.0 0.00 0.00 0.00 94 1003.0
20260504043101 37 97 1.0 4.0 0.00 0.00 0.00 94 1002.9
20260504041555 37 104 2.0 7.0 0.00 0.00 0.00 94 1002.9
20260504034551 38 106 1.0 5.0 0.00 0.00 0.00 93 1002.3
20260504033046 38 92 5.0 9.0 0.00 0.00 0.00 93 1002.5
20260504031601 38 113 3.0 7.0 0.00 0.00 0.00 91 1002.1
20260504030040 39 95 0.0 3.0 0.00 0.00 0.00 86 1002.0
20260504024535 40 108 0.0 3.0 0.00 0.00 0.00 91 1002.2
20260504023029 40 113 1.0 4.0 0.00 0.00 0.00 91 1001.8
20260504021525 42 108 2.0 6.0 0.00 0.00 0.00 85 1001.4
20260504020026 42 97 1.0 4.0 0.00 0.00 0.00 88 1001.4
20260504014520 42 101 1.0 8.0 0.00 0.00 0.00 87 1001.6
20260504013011 44 103 2.0 6.0 0.00 0.00 0.00 82 1001.6
20260504011506 46 91 1.0 5.0 0.00 0.00 0.00 80 1001.6
20260504010002 48 99 2.0 6.0 0.00 0.00 0.00 78 1001.7
20260504004558 50 319 2.0 8.0 0.00 0.00 0.00 61 1001.8
20260504003055 51 316 3.0 9.0 0.00 0.00 0.00 53 1001.6
20260504001610 52 304 6.0 9.0 0.00 0.00 0.00 54 1001.6
20260504000048 53 291 3.0 10.0 0.00 0.00 0.00 50 1001.5
20260503234546 53 334 7.0 13.0 0.00 0.00 0.00 50 1002.1
20260503233044 54 300 4.0 11.0 0.00 0.00 0.00 49 1002.0
20260503231549 54 92 3.0 14.0 0.00 0.00 0.00 49 1002.2
20260503230042 54 328 5.0 9.0 0.00 0.00 0.00 52 1002.1
20260503224537 54 341 5.0 12.0 0.00 0.00 0.00 54 1002.4
20260503223038 54 309 7.0 13.0 0.00 0.00 0.00 50 1002.1
20260503221535 55 318 7.0 14.0 0.00 0.00 0.00 44 1002.0
20260503220036 54 298 5.0 16.0 0.00 0.00 0.00 47 1002.2
20260503214527 54 323 8.0 15.0 0.00 0.00 0.00 44 1002.2
20260503213037 54 302 8.0 16.0 0.00 0.00 0.00 45 1002.0
20260503211524 55 281 7.0 13.0 0.00 0.00 0.00 47 1002.2
20260503210019 55 294 10.0 17.0 0.00 0.00 0.00 46 1002.1
20260503204516 54 299 9.0 18.0 0.00 0.00 0.00 44 1002.1
20260503203021 55 307 8.0 17.0 0.00 0.00 0.00 45 1002.1
20260503201511 55 271 9.0 18.0 0.00 0.00 0.00 41 1002.3
20260503200010 55 316 12.0 20.0 0.00 0.00 0.00 41 1002.3
20260503194506 56 304 10.0 16.0 0.00 0.00 0.00 42 1002.6
20260503193003 55 332 9.0 19.0 0.00 0.00 0.00 42 1002.7
20260503191607 55 315 12.0 18.0 0.00 0.00 0.00 37 1002.9
20260503190101 56 295 10.0 18.0 0.00 0.00 0.00 43 1002.9
20260503184616 57 305 8.0 17.0 0.00 0.00 0.00 42 1003.0
20260503183054 56 311 10.0 17.0 0.00 0.00 0.00 42 1003.1
20260503181551 57 323 11.0 25.0 0.00 0.00 0.00 36 1003.1
20260503180046 57 309 12.0 17.0 0.00 0.00 0.00 34 1003.3
20260503174553 58 309 10.0 15.0 0.00 0.00 0.00 36 1003.2